Regional Weather Roundup
Issued by NWS Grand Forks, ND

Home | Current Version | Previous Version | Text Only | Print | Product List | Glossary On
Versions: 1 2 3 4 5 6 7 8 9 10 11 12 13 14 15 16 17 18 19 20 21 22 23 24 25 26 27 28 29 30 31 32 33 34 35 36 37 38 39 40 41 42 43 44 45 46 47 48 49 50
000
ASUS43 KFGF 310531
RWRFGF
PRAIRIE TO PINES  WEATHER ROUNDUP
NATIONAL WEATHER SERVICE EASTERN NORTH DAKOTA/GRAND FORKS ND
1200 AM CDT THU JUL 31 2014

 **SATELLITE DATA USED TO AUGMENT SKY COVER AT AUTOMATED STATIONS**
 *****  WEATHER ACROSS EASTERN NORTH DAKOTA  *****

CITY           SKY/WX    TMP DP  RH WIND       PRES   REMARKS
GRAND FORKS    CLEAR     61  57  87 W6        30.04S
GRAND FRKS AFB CLEAR     60  59  99 W2        30.05S
GRAND FRKS NWS   N/A     63 N/A N/A MISG        N/A
DEVILS LAKE    CLEAR     64  55  72 CALM      30.07S
FARGO          CLEAR     64  56  75 CALM      30.04F
WAHPETON ARPT  PTCLDY    61  52  72 CALM      30.06S
$$

 ***** WEATHER ACROSS CENTRAL AND WESTERN NORTH DAKOTA  *****

CITY           SKY/WX    TMP DP  RH WIND       PRES   REMARKS
BISMARCK       MOCLDY    64  58  80 CALM      30.11S
MINOT          CLEAR     65  55  70 SW3       30.09F
JAMESTOWN      CLEAR     63  55  75 W3        30.09S
MINOT AFB      CLEAR     59  58  94 W3        30.09F
GARRISON         N/A     62  59  90 N5        30.11F
WILLISTON      CLEAR     68  53  58 CALM      30.11F
DICKINSON      CLEAR     63  52  67 E5        30.14S
HETTINGER      CLEAR     57  53  86 W3        30.16S
$$

 *****  OTHER AIRPORT OBSERVATIONS IN OUR AREA  *****

CITY           SKY/WX    TMP DP  RH WIND       PRES   REMARKS
WALHALLA         N/A     63  63 100 W3          N/A
GRAFTON AIRPOR FAIR      64  63  94 W6        30.04S
VALLEY CITY AR FAIR      63  59  88 CALM      30.09S
CANDO          FAIR      59  57  94 W3        30.09S
CAVALIER APRT  FAIR      63  57  82 W7        30.04S
GWINNER        CLEAR     63  55  77 W3        30.09F
ROLLA          FAIR      59  57  94 CALM      30.11S
 ***** THE ABOVE OBSERVATIONS ARE NON NWS ARE NOT QUALITY
       CONTROLLED AND MAY MIS-REPORT RAIN FOR SNOW...
$$

  *****  WEATHER ACROSS NORTHERN MINNESOTA  *****

CITY           SKY/WX    TMP DP  RH WIND       PRES   REMARKS
FLAG ISLAND    CLEAR     70  61  73 W5        29.99S
WARROAD        CLEAR     64  61  88 W6        30.02S
ROSEAU           N/A     64  59  82 W7        30.03S
HALLOCK        CLEAR     64  57  77 CALM      30.02F
THF RVR FALLS  CLEAR     64  57  77 CALM      30.04F
BAUDETTE       MOCLDY    66  58  75 VRB3      30.01S
WASKISH        CLEAR     68  61  77 W8        30.02S
CROOKSTON      CLEAR     61  59  94 CALM      30.05S
$$
  *****  WEATHER ACROSS CENTRAL AND WEST MINNESOTA  *****

CITY           SKY/WX    TMP DP  RH WIND       PRES   REMARKS
FOSSTON        CLEAR     55  52  88 CALM      30.06F
BEMIDJI        CLEAR     58  54  84 W5        30.05S
PARK RAPIDS    CLEAR     58  55  90 CALM      30.06S
ELBOW LAKE     FAIR      62  59  91 SW3       30.07S
WADENA         CLEAR     55  52  88 W3        30.06S
DETROIT LAKES  CLEAR     63  59  88 CALM      30.08S
MOORHEAD       CLEAR     63  61  94 CALM      30.06S
FERGUS FALLS   CLEAR     63  55  77 CALM      30.07R
MORRIS MN      CLEAR     61  57  88 CALM      30.07S
STAPLES        CLEAR     57  54  88 W5        30.06S
$$
  *****  WEATHER ELSEWHERE ACROSS MINNESOTA  *****

CITY           SKY/WX    TMP DP  RH WIND       PRES   REMARKS
DULUTH         PTCLDY    64  56  75 NW6       30.00S
INTRNTL FALLS  MOCLDY    57  56  96 CALM      29.99S
ELY            CLEAR     55  54  94 CALM      30.00S
CLOQUET        CLEAR     63  55  77 W7        30.01S
WHEATON        CLEAR     61  57  88 SW5       30.09S
BRAINERD       CLEAR     59  56  89 CALM      30.05S
HIBBING        CLEAR     66  55  67 W6        30.01S
ALEXANDRIA     CLEAR     62  56  80 SW5       30.09S
SAINT CLOUD    CLEAR     64  55  72 NW5       30.04F
MINNEAPOLIS    CLEAR     70  58  65 W6        30.04S
$$

  *****  WEATHER ACROSS SOUTH DAKOTA  *****

CITY           SKY/WX    TMP DP  RH WIND       PRES   REMARKS
SIOUX FALLS    CLEAR     61  56  83 NW3       30.11S
BROOKINGS      NOT AVBL
WATERTOWN      CLEAR     61  54  77 CALM      30.11S
HURON          PTCLDY    66  56  70 SE5       30.08S
SISSETON         N/A     56  55  97 CALM      30.07S
ABERDEEN       MOCLDY    58  55  90 CALM      30.09F
MITCHELL       PTCLDY    69  56  62 S6        30.10S
PIERRE         CLEAR     67  56  67 E8        30.07S
MOBRIDGE       CLEAR     64  57  78 S6        30.08F
RAPID CITY     PTCLDY    64  50  60 N10       30.18R
$$

  *****  SOME WEATHER IN NEARBY STATES *****

CITY           SKY/WX    TMP DP  RH WIND       PRES   REMARKS
GLASGOW MT     PTCLDY    72  50  45 SE12      30.05S
GREAT FALLS MT MOCLDY    72  43  35 W10       30.12R
CHEYENNE WY    CLOUDY    57  54  89 SW6       30.36S
SCOTTSBLUFF NE MOCLDY    65  58  78 CALM      30.23S
OMAHA NE       PTCLDY    64  58  80 CALM      30.11S
DES MOINES IA  CLEAR     69  56  62 CALM      30.09S
DAVENPORT IA   CLEAR     59  56  89 NW5       30.07S
CHICAGO IL     CLEAR     63  55  75 S6        30.03F
EAU CLAIRE WI  CLEAR     62  60  93 SW5       30.01S
LA CROSSE WI   CLEAR     67  62  84 SE3       30.02S
$$

  *****  SOME NATIONAL WEATHER *****

CITY           SKY/WX    TMP DP  RH WIND       PRES   REMARKS
LA GUARDIA NY  PTCLDY    72  59  63 S5        30.04S
RALEIGH NC     MOCLDY    71  65  81 CALM      30.09R
ATLANTA GA     MOCLDY    74  58  57 N5        30.06R
NEW ORLEANS LA PTCLDY    79  60  52 E5        30.02S
OKLAHOMA CITY  CLOUDY    70  66  88 NE10      30.05R
ALBUQUERQUE NM MOCLDY    69  60  73 E23G35    30.22R THUNDER
SALT LAKE CITY PTCLDY    72  53  51 SE6       30.17S
LOS ANGELES CA CLEAR     69  64  84 S5        29.93R
BOISE ID       PTCLDY    82  44  26 E5        30.08R
SEATTLE WA     PTCLDY    74  49  41 NE9       30.11R
$$

*** WEATHER ACROSS MANITOBA...SASKATCHEWAN AND ONTARIO ***
                ***ONTARIO***

CITY           SKY/WX    TMP DP  RH WIND       PRES   REMARKS
GERALDTON      CLOUDY    55  52  88 NW3       29.92F
THUNDER BAY    MOCLDY    57  55  94 SW2       29.93S
SIOUX LOOKOUT  CLEAR     52  50  93 NE2       29.99S
TORONTO        PTCLDY    61  54  77 NW6       29.97F
BIG TROUT LK   CLEAR     55  45  67 N6        29.97S
PICKLE LAKE    NOT AVBL
DRYDEN         CLEAR     59  57  94 CALM      30.00R
KENORA         CLOUDY    66  52  59 NE3       30.03R
$$
                *** MANITOBA***

CITY           SKY/WX    TMP DP  RH WIND       PRES   REMARKS
BRANDON        CLEAR     59  57  94 NW6       30.08S
DAUPHIN        CLEAR     63  57  82 W8        30.06S
ISLAND LAKE    CLEAR     64  52  63 NE2       30.05S
PILOT MOUND      N/A     61  55  82 W3          N/A
THE PAS        PTCLDY    68  59  73 CALM      30.03S
THOMPSON       CLEAR     59  55  88 E2        30.05
WINNIPEG       MOCLDY    61  57  88 NW7       30.03S
LYNN LAKE      CLEAR     66  54  63 E2        30.05F
CHURCHILL      MOCLDY    52  46  82 SE8       30.12S
GILLAM         CLOUDY    57  50  77 E6        30.09S
$$
                ***SASKATCHEWAN***

CITY           SKY/WX    TMP DP  RH WIND       PRES   REMARKS
ESTEVAN        MOCLDY    64  59  82 S5        30.12R
KINDERSLEY     MOCLDY    68  66  94 NE8       30.03S
LLOYDMINSTER   CLEAR     66  61  82 SE8       30.05S
PRINCE ALBERT  MOCLDY    63  61  94 NE2       30.06F
REGINA         PTCLDY    66  59  77 SE12      30.09S
YORKTON        CLEAR     66  57  72 S2        30.09F
N. BATTLEFORD    N/A     66  61  82 E9        30.06S
LA RONGE       PTCLDY    64  59  82 S3        30.04F
SASKATOON      PTCLDY    68  61  77 SE9       30.06S
SWIFT CURRENT  CLEAR     68  48  49 SW12      30.04F
$$
NOTE: THESE ARE AUTOMATED STATIONS WITH LIMITED QUALITY CONTROL
      "FAIR" INDICATES FEW OR NO CLOUDS BELOW 12,000 FEET WITH NO
      SIGNIFICANT WEATHER AND/OR OBSTRUCTIONS TO VISIBILITY.
      SKY/WX - SKY CONDITION AND SIGNIFICANT WEATHER.
      TMP - AIR TEMPERATURE.    DP   - DEWPOINT TEMPERATURE.
      RH  - RELATIVE HUMIDITY.  PRES - PRESSURE.
      HX  - HEAT INDEX.         WCI  - WIND CHILL INDEX.
$



USA.gov is the U.S. government's official web portal to all federal, state and local government web resources and services.